Wilmington, NC

10:48 AM EST on February 26, 2017 (GMT -0500)
Wilmington International

Weather History for KILM - September, 2014

Change the Weather History Date:

Tuesday, September 23, 2014

  Actual Average Record
Temperature  
Mean Temperature 63 °F 73 °F  
Max Temperature 67 °F 82 °F 94 °F (1980)
Min Temperature 59 °F 63 °F 46 °F (1999)
Degree Days  
Heating Degree Days 2 0  
Month to date heating degree days 2 0  
Since 1 July heating degree days 2 0  
Cooling Degree Days 0 8  
Month to date cooling degree days 270 247  
Year to date cooling degree days 2027 1870  
Growing Degree Days 13 (Base 50)    
Moisture  
Dew Point 60 °F    
Average Humidity 91    
Maximum Humidity 97    
Minimum Humidity 84    
Precipitation  
Precipitation 0.21 in 0.25 in 3.05 in (1923)
Month to date precipitation 5.57 6.14  
Year to date precipitation 48.08 45.11  
Sea Level Pressure  
Sea Level Pressure 30.18 in    
Wind  
Wind Speed 11 mph (NNE)    
Max Wind Speed 17 mph    
Max Gust Speed 25 mph    
Visibility 10 miles    
Events Rain    
T = Trace of Precipitation, MM = Missing Value Source: NWS Daily Summary

Daily Weather History Graph

Daily Weather History Graph

Search for Another Location

Airport or City:

Trip Planner

Search our weather history database for the weather conditions in past years. The results will help you decide how hot, cold, wet, or windy it might be!

Date:

Astronomy

Sep. 23, 2014 Rise Set
Actual Time 7:00 AM EDT 7:06 PM EDT
Civil Twilight 6:35 AM EDT 7:31 PM EDT
Nautical Twilight 6:06 AM EDT 8:01 PM EDT
Astronomical Twilight 5:36 AM EDT 8:30 PM EDT
Moon 6:23 AM EDT (9/23) 6:45 PM EDT (9/23)
Length of Visible Light 12h 56m
Length of Day
12h 06m
Waning Crescent, 0% of the Moon is Illuminated
Sep 23
Waning Crescent
Sep 24
New
Oct 1
First Quarter
Oct 8
Full
Oct 15
Last Quarter

Hourly Weather History & Observations

Time (EDT) Temp. Dew Point Humidity Pressure Visibility Wind Dir Wind Speed Gust Speed Precip Events Conditions
12:53 AM 66.9 °F 64.9 °F 93% 30.11 in 10.0 mi North 4.6 mph - N/A   Partly Cloudy
1:53 AM 66.0 °F 64.0 °F 93% 30.11 in 10.0 mi NNE 4.6 mph - N/A   Mostly Cloudy
2:53 AM 66.0 °F 62.1 °F 87% 30.09 in 10.0 mi NNE 9.2 mph - N/A   Mostly Cloudy
3:53 AM 66.0 °F 63.0 °F 90% 30.10 in 10.0 mi North 5.8 mph - N/A   Scattered Clouds
4:53 AM 64.9 °F 63.0 °F 93% 30.11 in 10.0 mi NNE 9.2 mph - N/A   Clear
5:53 AM 64.9 °F 63.0 °F 93% 30.12 in 10.0 mi NNE 8.1 mph - N/A   Clear
6:53 AM 64.9 °F 62.1 °F 90% 30.14 in 10.0 mi NE 8.1 mph - N/A   Clear
7:53 AM 66.0 °F 62.1 °F 87% 30.16 in 10.0 mi NNE 13.8 mph - N/A   Clear
8:53 AM 66.0 °F 62.1 °F 87% 30.19 in 10.0 mi NNE 10.4 mph - 0.00 in Rain Light Rain
9:53 AM 64.0 °F 61.0 °F 90% 30.20 in 10.0 mi NNE 11.5 mph - 0.02 in Rain Light Rain
10:53 AM 63.0 °F 61.0 °F 93% 30.22 in 7.0 mi North 11.5 mph - 0.05 in Rain Light Rain
11:53 AM 63.0 °F 60.1 °F 90% 30.22 in 10.0 mi North 12.7 mph - 0.03 in Rain Light Rain
12:53 PM 64.0 °F 60.1 °F 87% 30.22 in 10.0 mi North 11.5 mph 20.7 mph 0.01 in Rain Light Rain
1:53 PM 63.0 °F 60.1 °F 90% 30.20 in 10.0 mi North 10.4 mph - 0.00 in Rain Light Rain
2:22 PM 64.0 °F 60.1 °F 87% 30.19 in 10.0 mi NNE 12.7 mph - 0.00 in Rain Light Rain
2:53 PM 64.0 °F 59.0 °F 84% 30.19 in 10.0 mi NNE 11.5 mph - 0.00 in Rain Light Rain
3:03 PM 64.0 °F 60.1 °F 87% 30.19 in 10.0 mi NNE 11.5 mph - 0.00 in Rain Light Rain
3:16 PM 64.0 °F 59.0 °F 84% 30.19 in 10.0 mi NNE 11.5 mph - 0.00 in Rain Light Rain
3:36 PM 64.4 °F 59.0 °F 83% 30.19 in 10.0 mi NNE 11.5 mph - N/A Rain Light Rain
3:53 PM 64.0 °F 59.0 °F 84% 30.19 in 10.0 mi North 11.5 mph - 0.00 in   Overcast
4:53 PM 62.1 °F 59.0 °F 90% 30.19 in 10.0 mi NNE 11.5 mph - 0.01 in Rain Light Rain
5:53 PM 61.0 °F 59.0 °F 93% 30.19 in 10.0 mi North 12.7 mph - 0.05 in   Overcast
6:04 PM 61.0 °F 59.0 °F 93% 30.19 in 10.0 mi NNE 13.8 mph - N/A   Overcast
6:53 PM 61.0 °F 59.0 °F 93% 30.20 in 10.0 mi NNE 11.5 mph - 0.00 in   Overcast
7:22 PM 61.0 °F 59.0 °F 93% 30.21 in 10.0 mi North 9.2 mph - 0.00 in Rain Light Rain
7:43 PM 61.0 °F 59.0 °F 93% 30.21 in 10.0 mi North 9.2 mph - 0.00 in Rain Light Rain
7:53 PM 61.0 °F 59.0 °F 93% 30.21 in 8.0 mi North 10.4 mph - 0.00 in Rain Light Rain
8:05 PM 60.1 °F 59.0 °F 96% 30.21 in 6.0 mi North 12.7 mph - 0.01 in Rain Light Rain
8:53 PM 60.1 °F 57.9 °F 93% 30.20 in 10.0 mi North 15.0 mph 23.0 mph 0.01 in Rain Light Rain
9:53 PM 60.1 °F 57.9 °F 93% 30.21 in 10.0 mi NNE 16.1 mph - 0.00 in Rain Light Rain
10:41 PM 60.1 °F 57.0 °F 90% 30.20 in 10.0 mi North 16.1 mph 24.2 mph 0.00 in   Overcast
10:53 PM 60.1 °F 57.0 °F 90% 30.20 in 10.0 mi North 17.3 mph 23.0 mph 0.00 in   Overcast
11:27 PM 60.1 °F 57.0 °F 90% 30.21 in 10.0 mi North 16.1 mph 24.2 mph 0.00 in Rain Light Rain
11:53 PM 59.0 °F 55.9 °F 90% 30.19 in 10.0 mi North 16.1 mph 23.0 mph 0.00 in   Overcast